Simultaneous Nadir Overpasses (SNOs) Predictions

Prediction of SNOs between NOAA-20 and LANDSAT-8 Satellite Orbit:

Table of predicted SNOs for the next 14.0 days since TLE Epoch: 11/20/2020
Index Date (NOAA-20) Time (NOAA-20) Lat,Lon (NOAA-20) SZA (NOAA-20 ) Date (LANDSAT-8) Time (LANDSAT-8) Lat,Lon (LANDSAT-8) SZA (LANDSAT-8 ) Distance(km) Time Diff (sec)
1 11/20/2020 23:39:45 69.98,-178.59 89.84 11/20/2020 23:39:56 69.99,-178.61 89.84 1.03 11
2 11/21/2020 00:30:27 -69.89, -11.14 90.25 11/21/2020 00:29:26 -69.88, -11.13 90.27 2.20 61
3 11/23/2020 15:05:57 -70.08, 129.71 89.51 11/23/2020 15:06:59 -70.08, 129.76 89.51 1.66 62
4 11/23/2020 15:56:41 69.97, -62.80 90.39 11/23/2020 15:56:26 69.98, -62.75 90.40 2.44 15
5 11/23/2020 16:47:14 -69.40, 105.35 90.18 11/23/2020 16:46:03 -69.48, 104.21 90.10 45.47 71
6 11/26/2020 07:22:52 -70.02,-114.42 89.06 11/26/2020 07:23:30 -70.01,-114.46 89.06 1.81 38
7 11/26/2020 08:13:36 69.90, 53.07 90.84 11/26/2020 08:12:57 69.91, 53.03 90.84 1.48 39
8 11/28/2020 22:49:14 70.52,-166.75 91.93 11/28/2020 22:50:24 70.43,-165.62 91.83 43.27 70
9 11/28/2020 23:39:48 -70.00, 1.37 88.59 11/28/2020 23:40:00 -69.99, 1.39 88.61 1.30 12
10 11/29/2020 00:30:32 69.89, 168.85 91.30 11/29/2020 00:29:27 69.88, 168.88 91.29 1.37 65
11 12/01/2020 15:06:01 70.09, -50.31 91.92 12/01/2020 15:06:59 70.07, -50.26 91.90 3.04 58
12 12/01/2020 15:56:42 -69.94, 117.23 88.23 12/01/2020 15:56:29 -69.97, 117.23 88.20 3.09 13
13 12/01/2020 16:47:15 69.25, -74.45 91.08 12/01/2020 16:46:06 69.30, -76.03 91.14 62.75 69
14 12/04/2020 07:22:56 70.03, 65.54 92.24 12/04/2020 07:23:29 70.04, 65.57 92.24 1.19 33
15 12/04/2020 08:13:38 -69.94,-126.99 87.86 12/04/2020 08:12:59 -69.94,-126.93 87.86 2.33 39
